Imperial, NE

3:48 PM MST on November 24, 2017 (GMT -0700)
Imperial Municipal

Weather History for KIML - May, 2013

Change the Weather History Date:

Thursday, May 16, 2013

  Actual Average Record
Temperature  
Mean Temperature 69 °F 60 °F  
Max Temperature 82 °F 73 °F 100 °F (1934)
Min Temperature 56 °F 47 °F 30 °F (1923)
Degree Days  
Heating Degree Days 0 6  
Month to date heating degree days 164 138  
Cooling Degree Days 4 1  
Month to date cooling degree days 28 12  
Year to date cooling degree days 30 13  
Growing Degree Days 17 (Base 50)    
Moisture  
Dew Point 50 °F    
Average Humidity 64    
Maximum Humidity 93    
Minimum Humidity 35    
Precipitation  
Precipitation 0.22 in 0.10 in 2.32 in (1962)
Snow  
Snow 0.00 in - - ()
Snow Depth -    
Sea Level Pressure  
Sea Level Pressure 29.77 in    
Wind  
Wind Speed 7 mph (SSE)    
Max Wind Speed 25 mph    
Max Gust Speed 36 mph    
Visibility 9 miles    
Events Rain , Thunderstorm    
T = Trace of Precipitation, MM = Missing Value Source: NWS Daily Summary

Daily Weather History Graph

Daily Weather History Graph

Search for Another Location

Airport or City:

Trip Planner

Search our weather history database for the weather conditions in past years. The results will help you decide how hot, cold, wet, or windy it might be!

Date:

Astronomy

May. 16, 2013 Rise Set
Actual Time 5:28 AM MDT 7:57 PM MDT
Civil Twilight 4:57 AM MDT 8:28 PM MDT
Nautical Twilight 4:19 AM MDT 9:07 PM MDT
Astronomical Twilight 3:36 AM MDT 9:50 PM MDT
Moon 11:04 AM MDT (5/16) 12:19 AM MDT (5/16)
Length of Visible Light 15h 31m
Length of Day
14h 28m
Waxing Crescent, 36% of the Moon is Illuminated
May 16
Waxing Crescent
May 17
First Quarter
May 24
Full
May 31
Last Quarter
Jun 8
New

Hourly Weather History & Observations

Time (MDT) Temp. Dew Point Humidity Pressure Visibility Wind Dir Wind Speed Gust Speed Precip Events Conditions
12:53 AM 57.9 °F 41.0 °F 53% 29.79 in 10.0 mi NE 4.6 mph - N/A   Clear
1:53 AM 57.0 °F 41.0 °F 55% 29.76 in 10.0 mi NE 4.6 mph - N/A   Clear
2:53 AM 57.0 °F 42.1 °F 57% 29.74 in 10.0 mi North 4.6 mph - N/A   Partly Cloudy
3:53 AM 57.0 °F 42.1 °F 57% 29.76 in 10.0 mi NW 4.6 mph - N/A   Partly Cloudy
4:53 AM 57.0 °F 42.1 °F 57% 29.75 in 10.0 mi WNW 4.6 mph - N/A   Mostly Cloudy
5:53 AM 57.0 °F 43.0 °F 59% 29.75 in 10.0 mi SW 4.6 mph - 0.00 in   Overcast
6:53 AM 57.0 °F 45.0 °F 64% 29.77 in 10.0 mi West 4.6 mph - N/A   Scattered Clouds
7:53 AM 61.0 °F 45.0 °F 56% 29.80 in 10.0 mi WSW 3.5 mph - N/A   Overcast
8:53 AM 66.9 °F 46.0 °F 47% 29.79 in 10.0 mi WNW 8.1 mph - N/A   Scattered Clouds
9:53 AM 71.1 °F 46.9 °F 42% 29.79 in 10.0 mi West 3.5 mph - N/A   Clear
10:53 AM 73.9 °F 48.0 °F 40% 29.79 in 10.0 mi South 3.5 mph - N/A   Partly Cloudy
11:53 AM 79.0 °F 48.0 °F 34% 29.75 in 10.0 mi SE 8.1 mph - N/A   Clear
12:46 PM 75.2 °F 55.4 °F 50% 29.80 in 4.0 mi SSW 8.1 mph - 0.03 in Rain , Thunderstorm Thunderstorms and Rain
12:53 PM 73.9 °F 55.0 °F 52% 29.73 in 6.0 mi South 6.9 mph - 0.03 in Rain , Thunderstorm Light Thunderstorms and Rain
1:19 PM 64.4 °F 55.4 °F 73% 29.84 in 2.5 mi West 13.8 mph 35.7 mph 0.10 in Rain , Thunderstorm Heavy Thunderstorms and Rain
1:32 PM 62.6 °F 53.6 °F 72% 29.81 in 5.0 mi SSW 19.6 mph 28.8 mph 0.15 in Rain , Thunderstorm Thunderstorms and Rain
1:53 PM 64.0 °F 52.0 °F 65% 29.78 in 10.0 mi Variable 3.5 mph 18.4 mph 0.16 in Rain , Thunderstorm Light Thunderstorms and Rain
2:21 PM 62.6 °F 53.6 °F 72% 29.83 in 10.0 mi East 5.8 mph - 0.00 in   Partly Cloudy
2:53 PM 66.9 °F 57.0 °F 70% 29.75 in 10.0 mi SSE 5.8 mph - 0.00 in   Clear
3:53 PM 73.9 °F 55.0 °F 52% 29.71 in 10.0 mi SSE 9.2 mph - N/A   Clear
4:53 PM 75.0 °F 54.0 °F 48% 29.72 in 10.0 mi ESE 11.5 mph - N/A   Clear
5:53 PM 72.0 °F 51.1 °F 48% 29.72 in 10.0 mi ESE 12.7 mph - N/A   Clear
6:53 PM 66.9 °F 55.9 °F 68% 29.75 in 10.0 mi East 4.6 mph - N/A   Clear
7:53 PM 63.0 °F 55.9 °F 78% 29.75 in 10.0 mi SE 10.4 mph - N/A   Clear
8:53 PM 61.0 °F 54.0 °F 78% 29.75 in 10.0 mi SSE 15.0 mph - N/A   Clear
9:53 PM 57.9 °F 53.1 °F 84% 29.78 in 10.0 mi SSE 5.8 mph - N/A   Partly Cloudy
10:53 PM 55.9 °F 53.1 °F 90% 29.80 in 10.0 mi East 4.6 mph - N/A   Clear
11:53 PM 57.9 °F 54.0 °F 87% 29.83 in 10.0 mi North 6.9 mph - 0.00 in   Overcast